This demonstration page uses our WeatherBlox Daily Observations layout. Learn more.

Left ArrowRight Arrow

30.21309, -93.2044

Hourly Observations for October 27, 2015

Temp ( °F °C ) Dew Point ( °F °C ) Humidity (%) Winds ( mph kmh ) Pressure ( in mb ) Visibility ( mi km ) Precip ( " mm )
12:15 am 00:15 Cloudy with Mist and Fog 63 17.1 62 16.8 98 98 NW 12 19 29.77 1008 3 5 0.00 0.00
12:35 am 00:35 Cloudy with Mist and Fog 63 17.1 62 16.9 99 99 WNW 10 17 29.77 1008 2 3 0.00 0.00
12:55 am 00:55 Cloudy with Mist and Fog 63 17.1 62 16.9 99 99 NW 10 17 29.77 1008 3 5 0.00 0.00
1:15 am 01:15 Cloudy with Mist and Fog 63 17 62 16.8 99 99 NW 10 17 29.77 1008 3 5 0.00 0.00
1:35 am 01:35 Cloudy with Mist and Fog 63 17.1 62 16.8 98 98 WNW 9 15 29.77 1008 3 5 0.01 0.25
1:55 am 01:55 Cloudy with Mist and Fog 63 17.1 62 16.8 98 98 WNW 8 13 29.77 1008 3 5 0.01 0.25
2:15 am 02:15 Cloudy with Mist and Fog 63 17.1 62 16.8 98 98 WNW 9 15 29.77 1008 3 5 0.00 0.00
2:35 am 02:35 Cloudy with Mist and Fog 63 17.1 62 16.8 98 98 WNW 8 13 29.77 1008 3 4 0.00 0.00
2:55 am 02:55 Cloudy with Mist and Fog 63 17.1 62 16.8 98 98 WNW 9 15 29.77 1008 3 5 0.00 0.00
3:15 am 03:15 Cloudy with Mist and Fog 63 17.2 62 16.9 98 98 WNW 10 17 29.77 1008 4 6 0.01 0.25
3:35 am 03:35 Cloudy with Mist and Fog 63 17.2 62 16.9 98 98 WNW 9 15 29.77 1008 5 8 0.01 0.25
3:55 am 03:55 Cloudy 63 17.2 62 16.9 98 98 NW 8 13 29.77 1008 7 11 0.01 0.25
4:15 am 04:15 Cloudy 63 17.4 63 17 98 98 NW 8 13 29.77 1008 10 16 0.00 0.00
4:35 am 04:35 Cloudy 63 17.4 63 17 98 98 NNW 7 11 29.77 1008 10 16 0.00 0.00
4:55 am 04:55 Cloudy 64 17.5 63 17 97 97 NNW 6 9 29.77 1008 10 16 0.00 0.00
5:15 am 05:15 Cloudy 63 17.4 62 16.9 97 97 NNW 7 11 29.77 1008 10 16 0.00 0.00
6:00 am 06:00 Cloudy 64 18 63 17 94 94 WNW 12 19 29.77 1008 10 16 0.00 0.00
6:55 am 06:55 Cloudy 64 18 63 17 94 94 WNW 12 19 29.80 1009 10 16 0.00 0.00
7:45 am 07:45 Cloudy 63 17 63 17 100 100 WNW 12 19 29.80 1009 10 16 0.00 0.00
10:47 am 10:47 Cloudy 66 19 63 17 88 88 WNW 12 19 29.83 1010 10 16 0.00 0.00
11:47 am 11:47 Cloudy 68 20 63 17 83 83 WNW 12 19 29.83 1010 10 16 0.00 0.00
12:55 pm 12:55 Cloudy 70 21 63 17 78 78 WNW 12 19 29.80 1009 10 16 0.00 0.00
1:45 pm 13:45 Cloudy 70 21 63 17 78 78 WNW 12 19 29.77 1008 10 16 0.00 0.00
2:55 pm 14:55 Cloudy 70 21 63 17 78 78 NW 9 15 29.77 1008 10 16 0.00 0.00
3:50 pm 15:50 Cloudy 70 21 63 17 78 78 WNW 8 13 29.77 1008 10 16 0.00 0.00
4:50 pm 16:50 Cloudy 68 20 63 17 83 83 WNW 6 9 29.77 1008 10 16 0.00 0.00
5:50 pm 17:50 Cloudy 68 20 63 17 83 83 W 13 20 29.77 1008 10 16 0.00 0.00
6:50 pm 18:50 Mostly Cloudy 66 19 61 16 83 83 Calm 29.77 1008 10 16 0.00 0.00
7:50 pm 19:50 Mostly Clear 64 18 61 16 88 88 Calm 29.80 1009 10 16 0.00 0.00
8:50 pm 20:50 Mostly Clear 63 17 61 16 94 94 SW 3 6 29.80 1009 10 16 0.00 0.00
9:50 pm 21:50 Mostly Clear 59 15 59 15 100 100 Calm 29.80 1009 10 16 0.00 0.00
10:15 pm 22:15 Clear 60 15.5 60 15.3 99 99 SSE 3 6 29.83 1010 7 11 0.00 0.00
10:35 pm 22:35 Clear with Mist and Fog 59 15.1 59 15 99 99 Calm 29.83 1010 5 8 0.00 0.00
10:55 pm 22:55 Clear with Mist and Fog 59 15.1 59 14.9 99 99 Calm 29.83 1010 4 6 0.00 0.00
11:15 pm 23:15 Mostly Cloudy with Mist and Fog 59 14.8 58 14.7 99 99 S 3 6 29.83 1010 1 2 0.00 0.00
11:35 pm 23:35 Clear with Mist and Fog 57 14.1 57 14 99 99 S 3 6 29.83 1010 3 5 0.00 0.00
11:55 pm 23:55 Clear 57 13.9 57 13.9 100 100 Calm 29.83 1010 7 11 0.00 0.00

Powered by AerisWeather